START_TIME,STEP,MOV.,P11,t_acc.,P23,t_acc.,P27,t_acc.,A4,t_acc.
1979-07-19 09:00:22.960 ,0,0,0.,4.8,0.,4.8,0.,4.8,0.,4.8
1979-07-19 09:00:27.760 ,0,0,0.,4.8,0.,4.8,0.,4.8,0.,4.8
1979-07-19 09:00:32.560 ,0,0,0.,4.8,0.,4.8,0.,4.8,0.,4.8
1979-07-19 09:00:37.360 ,0,0,0.,4.8,0.,4.8,0.,4.8,0.,4.8
1979-07-19 09:00:42.160 ,0,0,0.,4.8,0.,4.8,0.,4.8,0.,4.8
1979-07-19 09:01:10.960 ,0,0,0.,4.8,0.,4.8,0.,4.8,0.,4.8
1979-07-19 09:01:15.760 ,0,0,2.,4.8,0.,4.8,0.,4.8,0.,4.8
1979-07-19 09:01:20.560 ,0,0,1.,4.8,0.,4.8,0.,4.8,0.,4.8
1979-07-19 09:01:25.360 ,0,0,1.,4.8,0.,4.8,0.,4.8,0.,4.8
1979-07-19 09:01:30.160 ,0,0,0.,4.8,0.,4.8,0.,4.8,0.,4.8
1979-07-19 09:01:34.960 ,1,0,0.,4.8,0.,4.8,0.,4.8,0.,4.8
1979-07-19 09:01:39.760 ,1,0,1.,4.8,0.,4.8,0.,4.8,0.,4.8
1979-07-19 09:01:44.560 ,1,0,1.,4.8,0.,4.8,0.,4.8,0.,4.8
1979-07-19 09:01:49.360 ,1,0,0.,4.8,0.,4.8,0.,4.8,0.,4.8
1979-07-19 09:01:54.160 ,1,0,2.,4.8,0.,4.8,0.,4.8,0.,4.8
1979-07-19 09:03:10.960 ,3,0,0.,4.8,0.,4.8,0.,4.8,0.,4.8
1979-07-19 09:03:15.760 ,3,0,0.,4.8,0.,4.8,0.,4.8,0.,4.8
1979-07-19 09:03:20.560 ,3,0,1.,4.8,0.,4.8,0.,4.8,1.,4.8
1979-07-19 09:03:25.360 ,3,0,1.,4.8,0.,4.8,0.,4.8,0.,4.8
1979-07-19 09:03:30.160 ,3,0,0.,4.8,0.,4.8,0.,4.8,0.,4.8
1979-07-19 09:05:10.960 ,5,0,0.,4.8,0.,4.8,0.,4.8,0.,4.8
1979-07-19 09:05:15.760 ,5,0,0.,4.8,0.,4.8,0.,4.8,0.,4.8
1979-07-19 09:05:20.560 ,5,0,0.,4.8,0.,4.8,0.,4.8,0.,4.8
1979-07-19 09:05:25.360 ,5,0,0.,4.8,0.,4.8,0.,4.8,0.,4.8
1979-07-19 09:05:30.160 ,5,0,1.,4.8,0.,4.8,0.,4.8,0.,4.8
1979-07-19 09:07:10.960 ,3,1,0.,4.8,0.,4.8,0.,4.8,0.,4.8
1979-07-19 09:07:15.760 ,3,1,0.,4.8,0.,4.8,0.,4.8,0.,4.8
1979-07-19 09:07:20.560 ,3,1,2.,4.8,0.,4.8,0.,4.8,0.,4.8
1979-07-19 09:07:25.360 ,3,1,0.,4.8,0.,4.8,0.,4.8,0.,4.8
1979-07-19 09:07:30.160 ,3,1,0.,4.8,0.,4.8,0.,4.8,0.,4.8
1979-07-19 09:08:46.960 ,3,1,1.,4.8,0.,4.8,0.,4.8,0.,4.8
1979-07-19 09:08:51.760 ,3,1,0.,4.8,0.,4.8,0.,4.8,0.,4.8
1979-07-19 09:08:56.560 ,3,1,0.,4.8,0.,4.8,0.,4.8,0.,4.8
1979-07-19 09:09:01.360 ,3,1,1.,4.8,0.,4.8,0.,4.8,0.,4.8
1979-07-19 09:09:06.160 ,3,1,0.,4.8,0.,4.8,0.,4.8,0.,4.8
1979-07-19 09:09:10.960 ,0,1,3.,4.8,0.,4.8,0.,4.8,0.,4.8
1979-07-19 09:09:15.760 ,0,1,0.,4.8,0.,4.8,0.,4.8,0.,4.8
1979-07-19 09:09:20.560 ,0,1,0.,4.8,0.,4.8,0.,4.8,0.,4.8
1979-07-19 09:09:25.360 ,0,1,1.,4.8,0.,4.8,0.,4.8,0.,4.8
1979-07-19 09:09:30.160 ,0,1,0.,4.8,0.,4.8,0.,4.8,0.,4.8
1979-07-19 09:09:34.960 ,4,1,0.,4.8,0.,4.8,0.,4.8,0.,4.8
1979-07-19 09:09:39.760 ,4,1,0.,4.8,0.,4.8,0.,4.8,0.,4.8
1979-07-19 09:09:44.560 ,4,1,2.,4.8,0.,4.8,0.,4.8,0.,4.8
1979-07-19 09:09:49.360 ,4,1,1.,4.8,0.,4.8,0.,4.8,0.,4.8
1979-07-19 09:09:54.160 ,4,1,0.,4.8,0.,4.8,0.,4.8,0.,4.8
1979-07-19 09:10:46.960 ,0,1,0.,4.8,0.,4.8,0.,4.8,0.,4.8
1979-07-19 09:10:51.760 ,0,1,4.,4.8,0.,4.8,0.,4.8,0.,4.8
1979-07-19 09:10:56.560 ,0,1,0.,4.8,0.,4.8,0.,4.8,0.,4.8
1979-07-19 09:11:01.360 ,0,1,1.,4.8,0.,4.8,0.,4.8,0.,4.8
1979-07-19 09:11:06.160 ,0,1,0.,4.8,0.,4.8,0.,4.8,0.,4.8
1979-07-19 09:11:10.960 ,4,1,1.,4.8,0.,4.8,0.,4.8,0.,4.8
1979-07-19 09:11:15.760 ,4,1,1.,4.8,0.,4.8,0.,4.8,0.,4.8
1979-07-19 09:11:20.560 ,4,1,1.,4.8,0.,4.8,0.,4.8,0.,4.8
1979-07-19 09:11:25.360 ,4,1,0.,4.8,0.,4.8,0.,4.8,0.,4.8
1979-07-19 09:11:30.160 ,4,1,1.,4.8,0.,4.8,0.,4.8,0.,4.8
1979-07-19 09:12:46.960 ,4,1,0.,4.8,0.,4.8,0.,4.8,0.,4.8
1979-07-19 09:12:51.760 ,4,1,1.,4.8,0.,4.8,0.,4.8,0.,4.8
1979-07-19 09:12:56.560 ,4,1,1.,4.8,0.,4.8,0.,4.8,0.,4.8
1979-07-19 09:13:01.360 ,4,1,0.,4.8,0.,4.8,0.,4.8,0.,4.8
1979-07-19 09:13:06.160 ,4,1,1.,4.8,0.,4.8,0.,4.8,0.,4.8
1979-07-19 09:13:10.960 ,7,1,1.,4.8,0.,4.8,0.,4.8,0.,4.8
1979-07-19 09:13:15.760 ,7,1,0.,4.8,0.,4.8,0.,4.8,0.,4.8
1979-07-19 09:13:20.560 ,7,1,0.,4.8,0.,4.8,0.,4.8,0.,4.8
1979-07-19 09:13:25.360 ,7,1,1.,4.8,0.,4.8,0.,4.8,0.,4.8
1979-07-19 09:13:30.160 ,7,1,0.,4.8,0.,4.8,0.,4.8,0.,4.8
1979-07-19 09:14:46.960 ,7,1,0.,4.8,0.,4.8,0.,4.8,0.,4.8
1979-07-19 09:14:51.760 ,7,1,0.,4.8,0.,4.8,0.,4.8,0.,4.8
1979-07-19 09:14:56.560 ,7,1,0.,4.8,0.,4.8,0.,4.8,0.,4.8
1979-07-19 09:15:01.360 ,7,1,0.,4.8,0.,4.8,0.,4.8,0.,4.8
1979-07-19 09:15:06.160 ,7,1,0.,4.8,0.,4.8,0.,4.8,0.,4.8
1979-07-19 09:15:10.960 ,3,1,0.,4.8,0.,4.8,0.,4.8,0.,4.8
1979-07-19 09:15:15.760 ,3,1,0.,4.8,0.,4.8,0.,4.8,0.,4.8
1979-07-19 09:15:20.560 ,3,1,1.,4.8,0.,4.8,0.,4.8,0.,4.8
1979-07-19 09:15:25.360 ,3,1,1.,4.8,0.,4.8,0.,4.8,0.,4.8
1979-07-19 09:15:30.160 ,3,1,0.,4.8,0.,4.8,0.,4.8,0.,4.8
1979-07-19 09:16:46.960 ,3,1,0.,4.8,0.,4.8,0.,4.8,0.,4.8
1979-07-19 09:16:51.760 ,3,1,1.,4.8,0.,4.8,0.,4.8,0.,4.8
1979-07-19 09:16:56.560 ,3,1,3.,4.8,0.,4.8,0.,4.8,0.,4.8
1979-07-19 09:17:01.360 ,3,1,0.,4.8,0.,4.8,0.,4.8,0.,4.8
1979-07-19 09:17:06.160 ,3,1,0.,4.8,0.,4.8,0.,4.8,0.,4.8
1979-07-19 09:18:46.960 ,5,0,1.,4.8,0.,4.8,0.,4.8,0.,4.8
1979-07-19 09:18:51.760 ,5,0,2.,4.8,0.,4.8,0.,4.8,0.,4.8
1979-07-19 09:18:56.560 ,5,0,1.,4.8,0.,4.8,0.,4.8,0.,4.8
1979-07-19 09:19:01.360 ,5,0,0.,4.8,0.,4.8,0.,4.8,0.,4.8
1979-07-19 09:19:06.160 ,5,0,2.,4.8,0.,4.8,0.,4.8,0.,4.8
1979-07-19 09:20:22.960 ,3,0,0.,4.8,0.,4.8,0.,4.8,0.,4.8
1979-07-19 09:20:27.760 ,3,0,0.,4.8,0.,4.8,0.,4.8,0.,4.8
1979-07-19 09:20:32.560 ,3,0,0.,4.8,0.,4.8,0.,4.8,0.,4.8
1979-07-19 09:20:37.360 ,3,0,0.,4.8,0.,4.8,0.,4.8,0.,4.8
1979-07-19 09:20:42.160 ,3,0,2.,4.8,0.,4.8,0.,4.8,0.,4.8
1979-07-19 09:20:46.960 ,2,0,2.,4.8,0.,4.8,0.,4.8,0.,4.8
1979-07-19 09:20:51.760 ,2,0,0.,4.8,0.,4.8,0.,4.8,0.,4.8
1979-07-19 09:20:56.560 ,2,0,0.,4.8,0.,4.8,0.,4.8,0.,4.8
1979-07-19 09:21:01.360 ,2,0,1.,4.8,0.,4.8,0.,4.8,0.,4.8
1979-07-19 09:21:06.160 ,2,0,0.,4.8,0.,4.8,0.,4.8,0.,4.8
1979-07-19 09:22:22.960 ,0,0,0.,4.8,0.,4.8,0.,4.8,0.,4.8
1979-07-19 09:22:27.760 ,0,0,0.,4.8,0.,4.8,0.,4.8,0.,4.8
1979-07-19 09:22:32.560 ,0,0,2.,4.8,0.,4.8,0.,4.8,0.,4.8
1979-07-19 09:22:37.360 ,0,0,2.,4.8,0.,4.8,0.,4.8,0.,4.8
1979-07-19 09:22:42.160 ,0,0,0.,4.8,0.,4.8,0.,4.8,0.,4.8
1979-07-19 09:22:46.960 ,0,0,1.,4.8,0.,4.8,0.,4.8,0.,4.8
1979-07-19 09:22:51.760 ,0,0,1.,4.8,0.,4.8,0.,4.8,0.,4.8
1979-07-19 09:22:56.560 ,0,0,1.,4.8,0.,4.8,0.,4.8,0.,4.8
1979-07-19 09:23:01.360 ,0,0,0.,4.8,0.,4.8,0.,4.8,0.,4.8
1979-07-19 09:23:06.160 ,0,0,2.,4.8,0.,4.8,0.,4.8,0.,4.8
1979-07-19 09:23:58.960 ,1,0,1.,4.8,0.,4.8,0.,4.8,0.,4.8
1979-07-19 09:24:03.760 ,1,0,1.,4.8,0.,4.8,0.,4.8,0.,4.8
1979-07-19 09:24:08.560 ,1,0,2.,4.8,0.,4.8,0.,4.8,0.,4.8
1979-07-19 09:24:13.360 ,1,0,2.,4.8,0.,4.8,0.,4.8,0.,4.8
1979-07-19 09:24:18.160 ,1,0,1.,4.8,0.,4.8,0.,4.8,0.,4.8
1979-07-19 09:24:22.960 ,1,0,1.,4.8,0.,4.8,0.,4.8,0.,4.8
1979-07-19 09:24:27.760 ,1,0,2.,4.8,0.,4.8,0.,4.8,0.,4.8
1979-07-19 09:24:32.560 ,1,0,0.,4.8,0.,4.8,0.,4.8,0.,4.8
1979-07-19 09:24:37.360 ,1,0,0.,4.8,0.,4.8,0.,4.8,0.,4.8
1979-07-19 09:24:42.160 ,1,0,1.,4.8,0.,4.8,0.,4.8,0.,4.8
1979-07-19 09:25:58.960 ,3,0,3.,4.8,0.,4.8,0.,4.8,0.,4.8
1979-07-19 09:26:03.760 ,3,0,0.,4.8,0.,4.8,0.,4.8,0.,4.8
1979-07-19 09:26:08.560 ,3,0,2.,4.8,0.,4.8,0.,4.8,0.,4.8
1979-07-19 09:26:13.360 ,3,0,0.,4.8,0.,4.8,0.,4.8,0.,4.8
1979-07-19 09:26:18.160 ,3,0,2.,4.8,0.,4.8,0.,4.8,0.,4.8
1979-07-19 09:26:22.960 ,4,0,3.,4.8,0.,4.8,0.,4.8,0.,4.8
1979-07-19 09:26:27.760 ,4,0,3.,4.8,0.,4.8,0.,4.8,0.,4.8
1979-07-19 09:26:32.560 ,4,0,0.,4.8,0.,4.8,0.,4.8,0.,4.8
1979-07-19 09:26:37.360 ,4,0,0.,4.8,0.,4.8,0.,4.8,0.,4.8
1979-07-19 09:26:42.160 ,4,0,1.,4.8,0.,4.8,0.,4.8,0.,4.8
1979-07-19 09:27:34.960 ,5,0,2.,4.8,0.,4.8,0.,4.8,0.,4.8
1979-07-19 09:27:39.760 ,5,0,1.,4.8,0.,4.8,0.,4.8,0.,4.8
1979-07-19 09:27:44.560 ,5,0,0.,4.8,0.,4.8,0.,4.8,0.,4.8
1979-07-19 09:27:49.360 ,5,0,1.,4.8,0.,4.8,0.,4.8,0.,4.8
1979-07-19 09:27:54.160 ,5,0,0.,4.8,0.,4.8,0.,4.8,0.,4.8
1979-07-19 09:28:22.960 ,6,0,5.,4.8,0.,4.8,0.,4.8,0.,4.8
1979-07-19 09:28:27.760 ,6,0,3.,4.8,0.,4.8,0.,4.8,0.,4.8
1979-07-19 09:28:32.560 ,6,0,1.,4.8,0.,4.8,0.,4.8,0.,4.8
1979-07-19 09:28:37.360 ,6,0,0.,4.8,0.,4.8,0.,4.8,0.,4.8
1979-07-19 09:28:42.160 ,6,0,1.,4.8,0.,4.8,0.,4.8,0.,4.8
1979-07-19 09:28:46.960 ,7,0,0.,4.8,0.,4.8,0.,4.8,0.,4.8
1979-07-19 09:28:51.760 ,7,0,2.,4.8,0.,4.8,0.,4.8,0.,4.8
1979-07-19 09:28:56.560 ,7,0,1.,4.8,0.,4.8,0.,4.8,0.,4.8
1979-07-19 09:29:01.360 ,7,0,1.,4.8,0.,4.8,0.,4.8,0.,4.8
1979-07-19 09:29:06.160 ,7,0,1.,4.8,0.,4.8,0.,4.8,0.,4.8
1979-07-19 09:29:10.960 ,7,0,0.,4.8,0.,4.8,0.,4.8,0.,4.8
1979-07-19 09:29:15.760 ,7,0,0.,4.8,0.,4.8,0.,4.8,0.,4.8
1979-07-19 09:29:20.560 ,7,0,0.,4.8,0.,4.8,0.,4.8,0.,4.8
1979-07-19 09:29:25.360 ,7,0,1.,4.8,0.,4.8,0.,4.8,0.,4.8
1979-07-19 09:29:30.160 ,7,0,1.,4.8,0.,4.8,0.,4.8,0.,4.8
1979-07-19 09:29:58.960 ,7,0,1.,4.8,0.,4.8,0.,4.8,0.,4.8
1979-07-19 09:30:03.760 ,7,0,0.,4.8,0.,4.8,0.,4.8,0.,4.8
1979-07-19 09:30:08.560 ,7,0,0.,4.8,0.,4.8,0.,4.8,0.,4.8
1979-07-19 09:30:13.360 ,7,0,0.,4.8,0.,4.8,0.,4.8,0.,4.8
1979-07-19 09:30:18.160 ,7,0,0.,4.8,0.,4.8,0.,4.8,0.,4.8
1979-07-19 09:30:22.960 ,6,0,1.,4.8,0.,4.8,0.,4.8,0.,4.8
1979-07-19 09:30:27.760 ,6,0,0.,4.8,0.,4.8,0.,4.8,0.,4.8
1979-07-19 09:30:32.560 ,6,0,2.,4.8,0.,4.8,0.,4.8,0.,4.8
1979-07-19 09:30:37.360 ,6,0,4.,4.8,0.,4.8,0.,4.8,0.,4.8
1979-07-19 09:30:42.160 ,6,0,0.,4.8,0.,4.8,0.,4.8,0.,4.8
1979-07-19 09:30:46.960 ,6,0,0.,4.8,0.,4.8,0.,4.8,0.,4.8
1979-07-19 09:30:51.760 ,6,0,1.,4.8,0.,4.8,0.,4.8,0.,4.8
1979-07-19 09:30:56.560 ,6,0,1.,4.8,0.,4.8,0.,4.8,0.,4.8
1979-07-19 09:31:01.360 ,6,0,3.,4.8,0.,4.8,0.,4.8,0.,4.8
1979-07-19 09:31:06.160 ,6,0,1.,4.8,0.,4.8,0.,4.8,0.,4.8
1979-07-19 09:31:58.960 ,4,0,0.,4.8,0.,4.8,0.,4.8,0.,4.8
1979-07-19 09:32:03.760 ,4,0,1.,4.8,0.,4.8,0.,4.8,0.,4.8
1979-07-19 09:32:08.560 ,4,0,0.,4.8,0.,4.8,0.,4.8,0.,4.8
1979-07-19 09:32:13.360 ,4,0,1.,4.8,0.,4.8,0.,4.8,0.,4.8
1979-07-19 09:32:18.160 ,4,0,2.,4.8,0.,4.8,0.,4.8,0.,4.8
1979-07-19 09:33:58.960 ,2,0,0.,4.8,0.,4.8,0.,4.8,0.,4.8
1979-07-19 09:34:03.760 ,2,0,0.,4.8,0.,4.8,0.,4.8,0.,4.8
1979-07-19 09:34:08.560 ,2,0,0.,4.8,0.,4.8,0.,4.8,0.,4.8
1979-07-19 09:34:13.360 ,2,0,2.,4.8,0.,4.8,0.,4.8,0.,4.8
1979-07-19 09:34:18.160 ,2,0,0.,4.8,0.,4.8,0.,4.8,0.,4.8
1979-07-19 09:34:22.960 ,1,0,5.,4.8,0.,4.8,0.,4.8,0.,4.8
1979-07-19 09:34:27.760 ,1,0,3.,4.8,0.,4.8,0.,4.8,0.,4.8
1979-07-19 09:34:32.560 ,1,0,1.,4.8,0.,4.8,0.,4.8,0.,4.8
1979-07-19 09:34:37.360 ,1,0,1.,4.8,0.,4.8,0.,4.8,0.,4.8
1979-07-19 09:34:42.160 ,1,0,0.,4.8,0.,4.8,0.,4.8,0.,4.8
1979-07-19 09:35:58.960 ,0,0,0.,4.8,0.,4.8,0.,4.8,0.,4.8
1979-07-19 09:36:03.760 ,0,0,3.,4.8,0.,4.8,0.,4.8,0.,4.8
1979-07-19 09:36:08.560 ,0,0,1.,4.8,0.,4.8,0.,4.8,0.,4.8
1979-07-19 09:36:13.360 ,0,0,0.,4.8,0.,4.8,0.,4.8,0.,4.8
1979-07-19 09:36:18.160 ,0,0,1.,4.8,0.,4.8,0.,4.8,0.,4.8
1979-07-19 09:36:22.960 ,0,0,0.,4.8,0.,4.8,0.,4.8,0.,4.8
1979-07-19 09:36:27.760 ,0,0,2.,4.8,0.,4.8,0.,4.8,0.,4.8
1979-07-19 09:36:32.560 ,0,0,0.,4.8,0.,4.8,0.,4.8,0.,4.8
1979-07-19 09:36:37.360 ,0,0,1.,4.8,0.,4.8,0.,4.8,0.,4.8
1979-07-19 09:36:42.160 ,0,0,0.,4.8,0.,4.8,0.,4.8,0.,4.8
1979-07-19 09:37:34.960 ,2,0,2.,4.8,0.,4.8,0.,4.8,0.,4.8
1979-07-19 09:37:39.760 ,2,0,0.,4.8,0.,4.8,0.,4.8,0.,4.8
1979-07-19 09:37:44.560 ,2,0,2.,4.8,0.,4.8,0.,4.8,0.,4.8
1979-07-19 09:37:49.360 ,2,0,0.,4.8,0.,4.8,0.,4.8,0.,4.8
1979-07-19 09:37:54.160 ,2,0,0.,4.8,0.,4.8,0.,4.8,0.,4.8
1979-07-19 09:37:58.960 ,2,0,0.,4.8,0.,4.8,0.,4.8,0.,4.8
1979-07-19 09:38:03.760 ,2,0,0.,4.8,0.,4.8,0.,4.8,0.,4.8
1979-07-19 09:38:08.560 ,2,0,0.,4.8,0.,4.8,0.,4.8,0.,4.8
1979-07-19 09:38:13.360 ,2,0,0.,4.8,0.,4.8,0.,4.8,0.,4.8
1979-07-19 09:38:18.160 ,2,0,1.,4.8,0.,4.8,0.,4.8,0.,4.8
1979-07-19 09:39:10.960 ,4,0,2.,4.8,0.,4.8,0.,4.8,0.,4.8
1979-07-19 09:39:15.760 ,4,0,0.,4.8,0.,4.8,0.,4.8,0.,4.8
1979-07-19 09:39:20.560 ,4,0,0.,4.8,0.,4.8,0.,4.8,0.,4.8
1979-07-19 09:39:25.360 ,4,0,1.,4.8,0.,4.8,0.,4.8,0.,4.8
1979-07-19 09:39:30.160 ,4,0,0.,4.8,0.,4.8,0.,4.8,0.,4.8
1979-07-19 09:39:34.960 ,4,0,1.,4.8,0.,4.8,0.,4.8,0.,4.8
1979-07-19 09:39:39.760 ,4,0,0.,4.8,0.,4.8,0.,4.8,0.,4.8
1979-07-19 09:39:44.560 ,4,0,2.,4.8,0.,4.8,0.,4.8,0.,4.8
1979-07-19 09:39:49.360 ,4,0,2.,4.8,0.,4.8,0.,4.8,0.,4.8
1979-07-19 09:39:54.160 ,4,0,2.,4.8,0.,4.8,0.,4.8,0.,4.8
1979-07-19 09:41:10.960 ,6,0,0.,4.8,0.,4.8,0.,4.8,0.,4.8
1979-07-19 09:41:15.760 ,6,0,1.,4.8,0.,4.8,0.,4.8,0.,4.8
1979-07-19 09:41:20.560 ,6,0,0.,4.8,0.,4.8,0.,4.8,0.,4.8
1979-07-19 09:41:25.360 ,6,0,2.,4.8,0.,4.8,0.,4.8,0.,4.8
1979-07-19 09:41:30.160 ,6,0,2.,4.8,0.,4.8,0.,4.8,0.,4.8
1979-07-19 09:41:34.960 ,7,0,1.,4.8,0.,4.8,0.,4.8,0.,4.8
1979-07-19 09:41:39.760 ,7,0,1.,4.8,0.,4.8,0.,4.8,0.,4.8
1979-07-19 09:41:44.560 ,7,0,1.,4.8,0.,4.8,0.,4.8,0.,4.8
1979-07-19 09:41:49.360 ,7,0,0.,4.8,0.,4.8,0.,4.8,0.,4.8
1979-07-19 09:41:54.160 ,7,0,1.,4.8,0.,4.8,0.,4.8,0.,4.8
1979-07-19 09:43:34.960 ,6,0,0.,4.8,0.,4.8,0.,4.8,0.,4.8
1979-07-19 09:43:39.760 ,6,0,0.,4.8,0.,4.8,0.,4.8,0.,4.8
1979-07-19 09:43:44.560 ,6,0,0.,4.8,0.,4.8,0.,4.8,0.,4.8
1979-07-19 09:43:49.360 ,6,0,0.,4.8,0.,4.8,0.,4.8,0.,4.8
1979-07-19 09:43:54.160 ,6,0,0.,4.8,0.,4.8,0.,4.8,0.,4.8
1979-07-19 09:43:58.960 ,5,0,0.,4.8,0.,4.8,0.,4.8,0.,4.8
1979-07-19 09:44:03.760 ,5,0,2.,4.8,0.,4.8,0.,4.8,0.,4.8
1979-07-19 09:44:08.560 ,5,0,1.,4.8,0.,4.8,0.,4.8,0.,4.8
1979-07-19 09:44:13.360 ,5,0,1.,4.8,0.,4.8,0.,4.8,0.,4.8
1979-07-19 09:44:18.160 ,5,0,0.,4.8,0.,4.8,0.,4.8,0.,4.8
1979-07-19 09:44:22.960 ,5,0,1.,4.8,0.,4.8,0.,4.8,0.,4.8
1979-07-19 09:44:27.760 ,5,0,0.,4.8,0.,4.8,0.,4.8,1.,4.8
1979-07-19 09:44:32.560 ,5,0,1.,4.8,0.,4.8,0.,4.8,0.,4.8
1979-07-19 09:44:37.360 ,5,0,0.,4.8,0.,4.8,0.,4.8,0.,4.8
1979-07-19 09:44:42.160 ,5,0,2.,4.8,0.,4.8,0.,4.8,0.,4.8
1979-07-19 09:44:46.960 ,4,0,1.,4.8,0.,4.8,0.,4.8,0.,4.8
1979-07-19 09:44:51.760 ,4,0,0.,4.8,0.,4.8,0.,4.8,0.,4.8
1979-07-19 09:44:56.560 ,4,0,5.,4.8,0.,4.8,0.,4.8,0.,4.8
1979-07-19 09:45:01.360 ,4,0,0.,4.8,0.,4.8,0.,4.8,0.,4.8
1979-07-19 09:45:06.160 ,4,0,1.,4.8,0.,4.8,0.,4.8,0.,4.8
1979-07-19 09:45:10.960 ,4,0,2.,4.8,0.,4.8,0.,4.8,0.,4.8
1979-07-19 09:45:15.760 ,4,0,0.,4.8,0.,4.8,0.,4.8,0.,4.8
1979-07-19 09:45:20.560 ,4,0,1.,4.8,0.,4.8,0.,4.8,0.,4.8
1979-07-19 09:45:25.360 ,4,0,0.,4.8,0.,4.8,0.,4.8,0.,4.8
1979-07-19 09:45:30.160 ,4,0,2.,4.8,0.,4.8,0.,4.8,0.,4.8
1979-07-19 09:45:34.960 ,3,0,1.,4.8,0.,4.8,0.,4.8,0.,4.8
1979-07-19 09:45:39.760 ,3,0,0.,4.8,0.,4.8,0.,4.8,0.,4.8
1979-07-19 09:45:44.560 ,3,0,1.,4.8,0.,4.8,0.,4.8,0.,4.8
1979-07-19 09:45:49.360 ,3,0,1.,4.8,0.,4.8,0.,4.8,0.,4.8
1979-07-19 09:45:54.160 ,3,0,0.,4.8,0.,4.8,0.,4.8,0.,4.8
1979-07-19 09:45:58.960 ,3,0,0.,4.8,0.,4.8,0.,4.8,0.,4.8
1979-07-19 09:46:03.760 ,3,0,0.,4.8,0.,4.8,0.,4.8,0.,4.8
1979-07-19 09:46:08.560 ,3,0,1.,4.8,0.,4.8,0.,4.8,0.,4.8
1979-07-19 09:46:13.360 ,3,0,1.,4.8,0.,4.8,0.,4.8,0.,4.8
1979-07-19 09:46:18.160 ,3,0,0.,4.8,0.,4.8,0.,4.8,0.,4.8
1979-07-19 09:46:46.960 ,2,0,0.,4.8,0.,4.8,0.,4.8,0.,4.8
1979-07-19 09:46:51.760 ,2,0,3.,4.8,0.,4.8,0.,4.8,0.,4.8
1979-07-19 09:46:56.560 ,2,0,2.,4.8,0.,4.8,0.,4.8,0.,4.8
1979-07-19 09:47:01.360 ,2,0,0.,4.8,0.,4.8,0.,4.8,0.,4.8
1979-07-19 09:47:06.160 ,2,0,1.,4.8,0.,4.8,0.,4.8,0.,4.8
1979-07-19 09:47:10.960 ,1,0,2.,4.8,0.,4.8,0.,4.8,0.,4.8
1979-07-19 09:47:15.760 ,1,0,2.,4.8,0.,4.8,0.,4.8,0.,4.8
1979-07-19 09:47:20.560 ,1,0,4.,4.8,0.,4.8,0.,4.8,0.,4.8
1979-07-19 09:47:25.360 ,1,0,0.,4.8,0.,4.8,0.,4.8,0.,4.8
1979-07-19 09:47:30.160 ,1,0,0.,4.8,0.,4.8,0.,4.8,0.,4.8
1979-07-19 09:48:22.960 ,0,0,4.,4.8,0.,4.8,0.,4.8,0.,4.8
1979-07-19 09:48:27.760 ,0,0,1.,4.8,0.,4.8,0.,4.8,0.,4.8
1979-07-19 09:48:32.560 ,0,0,1.,4.8,0.,4.8,0.,4.8,0.,4.8
1979-07-19 09:48:37.360 ,0,0,0.,4.8,0.,4.8,0.,4.8,0.,4.8
1979-07-19 09:48:42.160 ,0,0,1.,4.8,0.,4.8,0.,4.8,0.,4.8
1979-07-19 09:48:46.960 ,0,0,0.,4.8,0.,4.8,0.,4.8,0.,4.8
1979-07-19 09:48:51.760 ,0,0,0.,4.8,0.,4.8,0.,4.8,0.,4.8
1979-07-19 09:48:56.560 ,0,0,1.,4.8,0.,4.8,0.,4.8,0.,4.8
1979-07-19 09:49:01.360 ,0,0,0.,4.8,0.,4.8,0.,4.8,0.,4.8
1979-07-19 09:49:06.160 ,0,0,0.,4.8,0.,4.8,0.,4.8,0.,4.8
1979-07-19 09:49:10.960 ,0,0,0.,4.8,0.,4.8,0.,4.8,0.,4.8
1979-07-19 09:49:15.760 ,0,0,1.,4.8,0.,4.8,0.,4.8,0.,4.8
1979-07-19 09:49:20.560 ,0,0,0.,4.8,0.,4.8,0.,4.8,0.,4.8
1979-07-19 09:49:25.360 ,0,0,1.,4.8,0.,4.8,0.,4.8,1.,4.8
1979-07-19 09:49:30.160 ,0,0,1.,4.8,0.,4.8,0.,4.8,0.,4.8
1979-07-19 09:49:34.960 ,1,0,1.,4.8,0.,4.8,0.,4.8,0.,4.8
1979-07-19 09:49:39.760 ,1,0,0.,4.8,0.,4.8,0.,4.8,0.,4.8
1979-07-19 09:49:44.560 ,1,0,1.,4.8,0.,4.8,0.,4.8,0.,4.8
1979-07-19 09:49:49.360 ,1,0,1.,4.8,0.,4.8,0.,4.8,0.,4.8
1979-07-19 09:49:54.160 ,1,0,2.,4.8,0.,4.8,0.,4.8,0.,4.8
1979-07-19 09:49:58.960 ,1,0,0.,4.8,0.,4.8,0.,4.8,0.,4.8
1979-07-19 09:50:03.760 ,1,0,0.,4.8,0.,4.8,0.,4.8,0.,4.8
1979-07-19 09:50:08.560 ,1,0,1.,4.8,0.,4.8,0.,4.8,0.,4.8
1979-07-19 09:50:13.360 ,1,0,2.,4.8,0.,4.8,0.,4.8,0.,4.8
1979-07-19 09:50:18.160 ,1,0,2.,4.8,0.,4.8,0.,4.8,0.,4.8
1979-07-19 09:50:22.960 ,2,0,1.,4.8,0.,4.8,0.,4.8,0.,4.8
1979-07-19 09:50:27.760 ,2,0,0.,4.8,0.,4.8,0.,4.8,0.,4.8
1979-07-19 09:50:32.560 ,2,0,1.,4.8,0.,4.8,0.,4.8,0.,4.8
1979-07-19 09:50:37.360 ,2,0,0.,4.8,0.,4.8,0.,4.8,0.,4.8
1979-07-19 09:50:42.160 ,2,0,3.,4.8,0.,4.8,0.,4.8,0.,4.8
1979-07-19 09:50:46.960 ,2,0,0.,4.8,0.,4.8,0.,4.8,0.,4.8
1979-07-19 09:50:51.760 ,2,0,0.,4.8,0.,4.8,0.,4.8,0.,4.8
1979-07-19 09:50:56.560 ,2,0,1.,4.8,0.,4.8,0.,4.8,0.,4.8
1979-07-19 09:51:01.360 ,2,0,4.,4.8,0.,4.8,0.,4.8,0.,4.8
1979-07-19 09:51:06.160 ,2,0,0.,4.8,0.,4.8,0.,4.8,0.,4.8
1979-07-19 09:51:10.960 ,3,0,3.,4.8,0.,4.8,0.,4.8,0.,4.8
1979-07-19 09:51:15.760 ,3,0,0.,4.8,0.,4.8,0.,4.8,0.,4.8
1979-07-19 09:51:20.560 ,3,0,1.,4.8,0.,4.8,0.,4.8,0.,4.8
1979-07-19 09:51:25.360 ,3,0,0.,4.8,0.,4.8,0.,4.8,0.,4.8
1979-07-19 09:51:30.160 ,3,0,0.,4.8,0.,4.8,0.,4.8,0.,4.8
1979-07-19 09:51:34.960 ,3,0,0.,4.8,0.,4.8,0.,4.8,0.,4.8
1979-07-19 09:51:39.760 ,3,0,1.,4.8,0.,4.8,0.,4.8,0.,4.8
1979-07-19 09:51:44.560 ,3,0,1.,4.8,0.,4.8,0.,4.8,0.,4.8
1979-07-19 09:51:49.360 ,3,0,1.,4.8,0.,4.8,0.,4.8,0.,4.8
1979-07-19 09:51:54.160 ,3,0,0.,4.8,0.,4.8,0.,4.8,0.,4.8
1979-07-19 09:51:58.960 ,4,0,2.,4.8,0.,4.8,0.,4.8,0.,4.8
1979-07-19 09:52:03.760 ,4,0,1.,4.8,0.,4.8,0.,4.8,0.,4.8
1979-07-19 09:52:08.560 ,4,0,0.,4.8,0.,4.8,0.,4.8,0.,4.8
1979-07-19 09:52:13.360 ,4,0,0.,4.8,0.,4.8,0.,4.8,0.,4.8
1979-07-19 09:52:18.160 ,4,0,1.,4.8,0.,4.8,0.,4.8,0.,4.8
1979-07-19 09:52:22.960 ,4,0,1.,4.8,0.,4.8,0.,4.8,0.,4.8
1979-07-19 09:52:27.760 ,4,0,1.,4.8,0.,4.8,0.,4.8,0.,4.8
1979-07-19 09:52:32.560 ,4,0,1.,4.8,0.,4.8,0.,4.8,0.,4.8
1979-07-19 09:52:37.360 ,4,0,1.,4.8,0.,4.8,0.,4.8,0.,4.8
1979-07-19 09:52:42.160 ,4,0,1.,4.8,0.,4.8,0.,4.8,0.,4.8
1979-07-19 09:52:46.960 ,5,0,1.,4.8,0.,4.8,0.,4.8,0.,4.8
1979-07-19 09:52:51.760 ,5,0,1.,4.8,0.,4.8,0.,4.8,0.,4.8
1979-07-19 09:52:56.560 ,5,0,1.,4.8,0.,4.8,0.,4.8,0.,4.8
1979-07-19 09:53:01.360 ,5,0,2.,4.8,0.,4.8,0.,4.8,0.,4.8
1979-07-19 09:53:06.160 ,5,0,0.,4.8,0.,4.8,0.,4.8,0.,4.8
1979-07-19 09:53:10.960 ,5,0,0.,4.8,0.,4.8,0.,4.8,0.,4.8
1979-07-19 09:53:15.760 ,5,0,0.,4.8,0.,4.8,0.,4.8,0.,4.8
1979-07-19 09:53:20.560 ,5,0,0.,4.8,0.,4.8,0.,4.8,0.,4.8
1979-07-19 09:53:25.360 ,5,0,2.,4.8,0.,4.8,0.,4.8,0.,4.8
1979-07-19 09:53:30.160 ,5,0,2.,4.8,0.,4.8,0.,4.8,0.,4.8
1979-07-19 09:53:34.960 ,6,0,0.,4.8,0.,4.8,0.,4.8,0.,4.8
1979-07-19 09:53:39.760 ,6,0,1.,4.8,0.,4.8,0.,4.8,1.,4.8
1979-07-19 09:53:44.560 ,6,0,1.,4.8,0.,4.8,0.,4.8,0.,4.8
1979-07-19 09:53:49.360 ,6,0,1.,4.8,0.,4.8,0.,4.8,0.,4.8
1979-07-19 09:53:54.160 ,6,0,1.,4.8,0.,4.8,0.,4.8,0.,4.8
1979-07-19 09:53:58.960 ,6,0,1.,4.8,0.,4.8,0.,4.8,0.,4.8
1979-07-19 09:54:03.760 ,6,0,1.,4.8,0.,4.8,0.,4.8,0.,4.8
1979-07-19 09:54:08.560 ,6,0,0.,4.8,0.,4.8,0.,4.8,0.,4.8
1979-07-19 09:54:13.360 ,6,0,2.,4.8,0.,4.8,0.,4.8,0.,4.8
1979-07-19 09:54:18.160 ,6,0,2.,4.8,0.,4.8,0.,4.8,0.,4.8
1979-07-19 09:54:22.960 ,7,0,1.,4.8,0.,4.8,0.,4.8,0.,4.8
1979-07-19 09:54:27.760 ,7,0,0.,4.8,0.,4.8,0.,4.8,0.,4.8
1979-07-19 09:54:32.560 ,7,0,0.,4.8,0.,4.8,0.,4.8,0.,4.8
1979-07-19 09:54:37.360 ,7,0,0.,4.8,0.,4.8,0.,4.8,0.,4.8
1979-07-19 09:54:42.160 ,7,0,0.,4.8,0.,4.8,0.,4.8,0.,4.8
1979-07-19 09:54:46.960 ,7,0,0.,4.8,0.,4.8,0.,4.8,0.,4.8
1979-07-19 09:54:51.760 ,7,0,0.,4.8,0.,4.8,0.,4.8,0.,4.8
1979-07-19 09:54:56.560 ,7,0,1.,4.8,0.,4.8,0.,4.8,0.,4.8
1979-07-19 09:55:01.360 ,7,0,0.,4.8,0.,4.8,0.,4.8,0.,4.8
1979-07-19 09:55:06.160 ,7,0,1.,4.8,0.,4.8,0.,4.8,0.,4.8
1979-07-19 09:55:10.960 ,3,1,0.,4.8,0.,4.8,0.,4.8,0.,4.8
1979-07-19 09:55:15.760 ,3,1,0.,4.8,0.,4.8,0.,4.8,0.,4.8
1979-07-19 09:55:20.560 ,3,1,0.,4.8,0.,4.8,0.,4.8,0.,4.8
1979-07-19 09:55:25.360 ,3,1,1.,4.8,0.,4.8,0.,4.8,0.,4.8
1979-07-19 09:55:30.160 ,3,1,1.,4.8,0.,4.8,0.,4.8,0.,4.8
1979-07-19 09:55:34.960 ,0,1,0.,4.8,0.,4.8,0.,4.8,0.,4.8
1979-07-19 09:55:39.760 ,0,1,0.,4.8,0.,4.8,0.,4.8,1.,4.8
1979-07-19 09:55:44.560 ,0,1,2.,4.8,0.,4.8,0.,4.8,0.,4.8
1979-07-19 09:55:49.360 ,0,1,0.,4.8,0.,4.8,0.,4.8,0.,4.8
1979-07-19 09:55:54.160 ,0,1,0.,4.8,0.,4.8,0.,4.8,0.,4.8
1979-07-19 09:55:58.960 ,4,1,0.,4.8,0.,4.8,0.,4.8,0.,4.8
1979-07-19 09:56:03.760 ,4,1,0.,4.8,0.,4.8,0.,4.8,0.,4.8
1979-07-19 09:56:08.560 ,4,1,1.,4.8,0.,4.8,0.,4.8,0.,4.8
1979-07-19 09:56:13.360 ,4,1,0.,4.8,0.,4.8,0.,4.8,0.,4.8
1979-07-19 09:56:18.160 ,4,1,0.,4.8,0.,4.8,0.,4.8,0.,4.8
1979-07-19 09:56:22.960 ,7,1,0.,4.8,0.,4.8,0.,4.8,0.,4.8
1979-07-19 09:56:27.760 ,7,1,0.,4.8,0.,4.8,0.,4.8,0.,4.8
1979-07-19 09:56:32.560 ,7,1,1.,4.8,0.,4.8,0.,4.8,0.,4.8
1979-07-19 09:56:37.360 ,7,1,0.,4.8,0.,4.8,0.,4.8,0.,4.8
1979-07-19 09:56:42.160 ,7,1,0.,4.8,0.,4.8,0.,4.8,0.,4.8
1979-07-19 09:56:46.960 ,3,1,1.,4.8,0.,4.8,0.,4.8,0.,4.8
1979-07-19 09:56:51.760 ,3,1,1.,4.8,0.,4.8,0.,4.8,0.,4.8
1979-07-19 09:56:56.560 ,3,1,1.,4.8,0.,4.8,0.,4.8,0.,4.8
1979-07-19 09:57:01.360 ,3,1,2.,4.8,0.,4.8,0.,4.8,0.,4.8
1979-07-19 09:57:06.160 ,3,1,2.,4.8,0.,4.8,0.,4.8,0.,4.8
1979-07-19 09:57:10.960 ,0,1,1.,4.8,0.,4.8,0.,4.8,0.,4.8
1979-07-19 09:57:15.760 ,0,1,1.,4.8,0.,4.8,0.,4.8,0.,4.8
1979-07-19 09:57:20.560 ,0,1,1.,4.8,0.,4.8,0.,4.8,0.,4.8
1979-07-19 09:57:25.360 ,0,1,1.,4.8,0.,4.8,0.,4.8,0.,4.8
1979-07-19 09:57:30.160 ,0,1,0.,4.8,0.,4.8,0.,4.8,0.,4.8
1979-07-19 09:57:34.960 ,4,1,0.,4.8,0.,4.8,0.,4.8,0.,4.8
1979-07-19 09:57:39.760 ,4,1,0.,4.8,0.,4.8,0.,4.8,0.,4.8
1979-07-19 09:57:44.560 ,4,1,0.,4.8,0.,4.8,0.,4.8,0.,4.8
1979-07-19 09:57:49.360 ,4,1,1.,4.8,0.,4.8,0.,4.8,0.,4.8
1979-07-19 09:57:54.160 ,4,1,1.,4.8,0.,4.8,0.,4.8,0.,4.8
1979-07-19 09:57:58.960 ,7,1,1.,4.8,0.,4.8,0.,4.8,0.,4.8
1979-07-19 09:58:03.760 ,7,1,0.,4.8,0.,4.8,0.,4.8,0.,4.8
1979-07-19 09:58:08.560 ,7,1,1.,4.8,0.,4.8,0.,4.8,0.,4.8
1979-07-19 09:58:13.360 ,7,1,1.,4.8,0.,4.8,0.,4.8,0.,4.8
1979-07-19 09:58:18.160 ,7,1,2.,4.8,0.,4.8,0.,4.8,0.,4.8
1979-07-19 09:58:22.960 ,3,1,0.,4.8,0.,4.8,0.,4.8,0.,4.8
1979-07-19 09:58:27.760 ,3,1,0.,4.8,0.,4.8,0.,4.8,0.,4.8
1979-07-19 09:58:32.560 ,3,1,0.,4.8,0.,4.8,0.,4.8,0.,4.8
1979-07-19 09:58:37.360 ,3,1,3.,4.8,0.,4.8,0.,4.8,0.,4.8
1979-07-19 09:58:42.160 ,3,1,2.,4.8,0.,4.8,0.,4.8,0.,4.8
1979-07-19 09:58:46.960 ,0,1,0.,4.8,0.,4.8,0.,4.8,0.,4.8
1979-07-19 09:58:51.760 ,0,1,0.,4.8,0.,4.8,0.,4.8,0.,4.8
1979-07-19 09:58:56.560 ,0,1,0.,4.8,0.,4.8,0.,4.8,0.,4.8
1979-07-19 09:59:01.360 ,0,1,1.,4.8,0.,4.8,0.,4.8,1.,4.8
1979-07-19 09:59:06.160 ,0,1,1.,4.8,0.,4.8,0.,4.8,0.,4.8
1979-07-19 09:59:10.960 ,4,1,0.,4.8,0.,4.8,0.,4.8,0.,4.8
1979-07-19 09:59:15.760 ,4,1,0.,4.8,0.,4.8,0.,4.8,0.,4.8
1979-07-19 09:59:20.560 ,4,1,1.,4.8,0.,4.8,0.,4.8,0.,4.8
1979-07-19 09:59:25.360 ,4,1,0.,4.8,0.,4.8,0.,4.8,0.,4.8
1979-07-19 09:59:30.160 ,4,1,3.,4.8,0.,4.8,0.,4.8,0.,4.8
1979-07-19 09:59:34.960 ,7,1,0.,4.8,0.,4.8,0.,4.8,0.,4.8
1979-07-19 09:59:39.760 ,7,1,0.,4.8,0.,4.8,0.,4.8,0.,4.8
1979-07-19 09:59:44.560 ,7,1,1.,4.8,0.,4.8,0.,4.8,0.,4.8
1979-07-19 09:59:49.360 ,7,1,1.,4.8,0.,4.8,0.,4.8,0.,4.8
1979-07-19 09:59:54.160 ,7,1,0.,4.8,0.,4.8,0.,4.8,0.,4.8
1979-07-19 09:59:58.960 ,3,1,0.,4.8,0.,4.8,0.,4.8,0.,4.8
1979-07-19 10:00:03.760 ,3,1,1.,4.8,0.,4.8,0.,4.8,0.,4.8
1979-07-19 10:00:08.560 ,3,1,0.,4.8,0.,4.8,0.,4.8,0.,4.8
1979-07-19 10:00:13.360 ,3,1,1.,4.8,0.,4.8,0.,4.8,0.,4.8
1979-07-19 10:00:18.160 ,3,1,1.,4.8,0.,4.8,0.,4.8,0.,4.8
1979-07-19 10:00:22.960 ,0,1,1.,4.8,0.,4.8,0.,4.8,0.,4.8
1979-07-19 10:00:27.760 ,0,1,0.,4.8,0.,4.8,0.,4.8,0.,4.8